Weather History for KLGU - January, 2013

Change the Weather History Date:

Sunday, January 13, 2013

  Actual Average Record
Temperature  
Mean Temperature -7 °F -  
Max Temperature 3 °F 29 °F 55 °F (1980)
Min Temperature -17 °F 12 °F -17 °F (2013)
Degree Days  
Heating Degree Days 72    
Moisture  
Dew Point -11 °F    
Average Humidity 81    
Maximum Humidity 92    
Minimum Humidity 74    
Precipitation  
Precipitation 0.00 in - - ()
Sea Level Pressure  
Sea Level Pressure 30.31 in    
Wind  
Wind Speed 1 mph (SW)    
Max Wind Speed 4 mph    
Max Gust Speed -    
Visibility 4 miles    
Events Fog , Snow    
Averages and records for this station are not official NWS values.
T = Trace of Precipitation, MM = Missing Value Source: NWS Daily Summary

Daily Weather History Graph

Daily Weather History Graph

Search for Another Location

Airport or City:

Trip Planner

Search our weather history database for the weather conditions in past years. The results will help you decide how hot, cold, wet, or windy it might be!

Date:

Astronomy

Jan. 13, 2013 Rise Set
Actual Time 7:53 AM MST 5:19 PM MST
Civil Twilight 7:22 AM MST 5:50 PM MST
Nautical Twilight 6:47 AM MST 6:25 PM MST
Astronomical Twilight 6:14 AM MST 6:58 PM MST
Moon 8:51 AM MST (1/13) 8:05 PM MST (1/13)
Length of Visible Light 10h 28m
Length of Day
9h 26m
Waxing Crescent, 5% of the Moon is Illuminated
Jan 13
Waxing Crescent
Jan 18
First Quarter
Jan 26
Full
Feb 3
Last Quarter
Feb 10
New

Hourly Weather History & Observations

Time (MST) Temp. Windchill Dew Point Humidity Pressure Visibility Wind Dir Wind Speed Gust Speed Precip Events Conditions
12:51 AM -0.0 °F - -4.0 °F 83% 30.36 in 5.0 mi Calm Calm - N/A   Overcast
1:21 AM -2.2 °F - -5.8 °F 85% 30.11 in 5.0 mi Calm Calm - N/A   Overcast
1:40 AM -0.4 °F -8.3 °F -4.0 °F 85% 30.11 in 9.0 mi SSW 3.5 mph - N/A   Overcast
1:51 AM -0.0 °F -7.9 °F -4.0 °F 83% 30.35 in 10.0 mi South 3.5 mph - N/A   Overcast
2:35 AM -2.2 °F - -5.8 °F 85% 30.11 in 6.0 mi Calm Calm - N/A   Overcast
2:41 AM -2.2 °F - -7.6 °F 78% 30.11 in 7.0 mi Calm Calm - N/A   Overcast
3:51 AM -8.0 °F -16.9 °F -11.0 °F 86% 30.38 in 10.0 mi NNE 3.5 mph - N/A   Clear
4:51 AM -9.9 °F - -13.0 °F 86% 30.39 in 8.0 mi Calm Calm - N/A   Clear
5:51 AM -13.0 °F - -18.9 °F 75% 30.42 in 10.0 mi Calm Calm - N/A   Clear
5:53 AM -13.0 °F - -18.4 °F 77% 30.11 in 2.0 mi Calm Calm - N/A   Haze
5:56 AM -13.0 °F - -18.4 °F 77% 30.11 in 1.0 mi Calm Calm - N/A   Haze
6:01 AM -13.0 °F - -18.4 °F 77% 30.11 in 0.5 mi Calm Calm - N/A   Haze
6:51 AM -11.0 °F -20.4 °F -15.0 °F 83% 30.45 in 0.5 mi West 3.5 mph - N/A Fog Light Freezing Fog
7:11 AM -11.2 °F - -16.6 °F 77% 30.14 in 0.5 mi Calm Calm - N/A   Haze
7:22 AM -9.4 °F - -14.8 °F 77% 30.14 in 1.5 mi Calm Calm - N/A   Haze
7:39 AM -7.6 °F - -11.2 °F 84% 30.14 in 3.0 mi Calm Calm - N/A   Haze
7:51 AM -6.0 °F -14.7 °F -9.9 °F 83% 30.43 in 6.0 mi SE 3.5 mph - 0.00 in Snow Light Snow
8:51 AM -5.1 °F - -9.9 °F 80% 30.45 in 7.0 mi Calm Calm - 0.00 in   Overcast
9:51 AM -4.0 °F - -9.9 °F 76% 30.46 in 8.0 mi Calm Calm - N/A   Overcast
10:51 AM -2.0 °F -10.1 °F -8.0 °F 76% 30.45 in 10.0 mi NNW 3.5 mph - N/A   Overcast
11:51 AM -0.0 °F - -2.9 °F 88% 30.43 in 10.0 mi Calm Calm - N/A   Partly Cloudy
12:51 PM 3.0 °F - -2.9 °F 76% 30.40 in 9.0 mi Calm Calm - N/A   Clear
2:51 PM 3.0 °F - -2.9 °F 76% 30.41 in 10.0 mi Calm Calm - N/A   Clear
4:51 PM 1.0 °F - -5.1 °F 75% 30.48 in 10.0 mi Calm Calm - N/A   Clear
5:51 PM -2.0 °F - -5.1 °F 87% 30.52 in 10.0 mi Calm Calm - N/A   Clear
6:32 PM -4.0 °F -12.4 °F -7.6 °F 85% 30.19 in 1.5 mi SSW 3.5 mph - N/A   Clear
6:39 PM -7.6 °F -16.5 °F -9.4 °F 92% 30.20 in 0.5 mi WSW 3.5 mph - N/A Fog Light Freezing Fog
6:48 PM -11.2 °F - -13.0 °F 92% 30.20 in 0.2 mi Calm Calm - N/A Fog Light Freezing Fog
6:51 PM -11.9 °F - -15.0 °F 86% 30.56 in 0.2 mi Calm Calm - N/A Fog Light Freezing Fog
7:09 PM -7.6 °F - -11.2 °F 84% 30.20 in 1.2 mi Calm Calm - N/A   Partly Cloudy
7:15 PM -9.4 °F - -13.0 °F 84% 30.20 in 1.0 mi Calm Calm - N/A   Mist
7:20 PM -7.6 °F - -11.2 °F 84% 30.20 in 0.5 mi Calm Calm - N/A Fog Light Freezing Fog
7:42 PM -9.4 °F - -14.8 °F 77% 30.21 in 1.5 mi Calm Calm - N/A   Haze
7:44 PM -9.4 °F - -14.8 °F 77% 30.21 in 3.0 mi Calm Calm - N/A   Haze
7:51 PM -8.0 °F - -11.9 °F 83% 30.53 in 5.0 mi Calm Calm - N/A   Partly Cloudy
8:20 PM -7.6 °F - -11.2 °F 84% 30.21 in 1.5 mi Calm Calm - N/A   Clear
8:26 PM -9.4 °F - -14.8 °F 77% 30.21 in 0.5 mi Calm Calm - N/A Fog Light Freezing Fog
8:32 PM -11.2 °F - -16.6 °F 77% 30.21 in 0.2 mi Calm Calm - N/A   Haze
8:51 PM -11.9 °F - -16.1 °F 82% 30.55 in 0.5 mi Calm Calm - N/A Fog Light Freezing Fog
9:51 PM -17.0 °F - -20.9 °F 82% 30.58 in 0.2 mi Calm Calm - N/A Fog Light Freezing Fog
11:51 PM -16.1 °F - -22.0 °F 74% 30.57 in 0.5 mi Calm Calm - N/A   Haze